Granite Falls, MN

4:24 AM CDT on August 24, 2017 (GMT -0500)
Granite Falls

Weather History for KGDB - December, 2012

Change the Weather History Date:

Friday, December 14, 2012

  Actual Average (KMVE) Record (KMVE)
Temperature  
Mean Temperature 18 °F -  
Max Temperature 34 °F 27 °F 55 °F (1998)
Min Temperature 3 °F 9 °F -19 °F (1989)
Degree Days  
Heating Degree Days 46    
Moisture  
Dew Point 16 °F    
Average Humidity 86    
Maximum Humidity 92    
Minimum Humidity 75    
Precipitation  
Precipitation 0.00 in - - ()
Sea Level Pressure  
Sea Level Pressure 29.92 in    
Wind  
Wind Speed 4 mph (East)    
Max Wind Speed 10 mph    
Max Gust Speed -    
Visibility 6 miles    
Events Fog , Snow    
Averages and records for this station are not official NWS values.
T = Trace of Precipitation, MM = Missing Value Source: NWS Daily Summary

Daily Weather History Graph

Daily Weather History Graph

Search for Another Location

Airport or City:

Trip Planner

Search our weather history database for the weather conditions in past years. The results will help you decide how hot, cold, wet, or windy it might be!

Date:

Astronomy

Dec. 14, 2012 Rise Set
Actual Time 7:52 AM CST 4:42 PM CST
Civil Twilight 7:18 AM CST 5:15 PM CST
Nautical Twilight 6:41 AM CST 5:52 PM CST
Astronomical Twilight 6:06 AM CST 6:28 PM CST
Moon 8:55 AM CST (12/14) 6:38 PM CST (12/14)
Length of Visible Light 9h 56m
Length of Day
8h 49m
Waxing Crescent, 3% of the Moon is Illuminated
Dec 14
Waxing Crescent
Dec 19
First Quarter
Dec 28
Full
Jan 4
Last Quarter
Jan 11
New

Hourly Weather History & Observations

Time (CST) Temp. Windchill Dew Point Humidity Pressure Visibility Wind Dir Wind Speed Gust Speed Precip Events Conditions
12:11 AM 4.8 °F - 1.4 °F 86% 30.13 in 7.0 mi Calm Calm - N/A   Clear
12:31 AM 5.9 °F - 2.8 °F 87% 30.13 in 7.0 mi Calm Calm - N/A   Clear
12:51 AM 5.9 °F - 2.8 °F 87% 30.12 in 7.0 mi Calm Calm - N/A   Clear
1:11 AM 6.3 °F - 3.2 °F 87% 30.10 in 7.0 mi Calm Calm - N/A   Clear
1:31 AM 6.1 °F - 2.8 °F 87% 30.10 in 7.0 mi Calm Calm - N/A   Clear
1:50 AM 5.4 °F -1.7 °F 1.9 °F 86% 30.10 in 7.0 mi SE 3.5 mph - N/A   Clear
2:11 AM 4.5 °F -2.7 °F 1.0 °F 86% 30.10 in 7.0 mi SSE 3.5 mph - N/A   Clear
2:51 AM 3.4 °F - -0.2 °F 85% 30.11 in 7.0 mi Calm Calm - N/A   Overcast
3:10 AM 6.4 °F - 3.7 °F 89% 30.11 in 7.0 mi Calm Calm - N/A   Overcast
3:31 AM 7.3 °F - 4.3 °F 87% 30.10 in 4.0 mi Calm Calm - N/A   Overcast
3:50 AM 7.7 °F - 5.0 °F 89% 30.09 in 1.2 mi Calm Calm - N/A   Overcast
4:11 AM 9.0 °F 2.4 °F 6.3 °F 89% 30.07 in 0.2 mi East 3.5 mph - N/A Fog Light Freezing Fog
4:30 AM 9.0 °F 0.6 °F 6.1 °F 88% 30.07 in 0.2 mi ESE 4.6 mph - N/A Fog Light Freezing Fog
4:51 AM 10.4 °F 4.0 °F 7.7 °F 89% 30.06 in 0.2 mi ESE 3.5 mph - N/A Snow Light Snow
5:10 AM 11.1 °F - 8.6 °F 90% 30.05 in 0.2 mi Calm Calm - N/A Fog Light Freezing Fog
5:31 AM 11.3 °F 1.9 °F 8.6 °F 89% 30.05 in 0.5 mi SE 5.8 mph - N/A Fog Light Freezing Fog
5:51 AM 12.2 °F 1.7 °F 9.5 °F 89% 30.04 in 0.5 mi SE 6.9 mph - N/A Fog Light Freezing Fog
6:11 AM 12.0 °F 2.7 °F 9.5 °F 90% 30.04 in 0.2 mi ESE 5.8 mph - N/A Fog Light Freezing Fog
6:31 AM 11.8 °F 3.9 °F 9.3 °F 90% 30.03 in 0.5 mi ESE 4.6 mph - N/A Fog Light Freezing Fog
6:51 AM 11.3 °F 1.9 °F 8.6 °F 89% 30.03 in 0.5 mi ESE 5.8 mph - N/A Fog Light Freezing Fog
7:10 AM 11.3 °F 3.3 °F 8.8 °F 90% 30.03 in 1.0 mi ESE 4.6 mph - N/A   Overcast
7:31 AM 11.7 °F 5.5 °F 9.0 °F 89% 30.03 in 1.0 mi ESE 3.5 mph - N/A   Overcast
7:51 AM 10.8 °F 4.5 °F 7.9 °F 88% 30.03 in 2.5 mi ESE 3.5 mph - N/A   Overcast
8:10 AM 9.7 °F 3.2 °F 6.8 °F 88% 30.02 in 3.0 mi East 3.5 mph - N/A   Scattered Clouds
8:51 AM 11.1 °F 1.7 °F 8.4 °F 89% 30.01 in 4.0 mi ESE 5.8 mph - N/A   Clear
9:10 AM 11.5 °F 2.1 °F 9.0 °F 90% 30.00 in 5.0 mi ESE 5.8 mph - N/A   Clear
9:31 AM 12.2 °F - 9.5 °F 89% 29.99 in 5.0 mi Calm Calm - N/A   Clear
9:51 AM 13.3 °F 5.6 °F 10.9 °F 90% 29.99 in 5.0 mi ESE 4.6 mph - N/A   Clear
10:11 AM 13.5 °F 5.8 °F 11.1 °F 90% 29.98 in 5.0 mi ESE 4.6 mph - N/A   Clear
10:51 AM 16.5 °F 11.0 °F 14.5 °F 92% 29.98 in 5.0 mi ESE 3.5 mph - N/A   Clear
11:10 AM 17.1 °F 11.7 °F 14.9 °F 91% 29.98 in 7.0 mi ESE 3.5 mph - N/A   Clear
11:31 AM 18.1 °F 12.9 °F 15.8 °F 91% 29.97 in 5.0 mi East 3.5 mph - N/A   Clear
11:51 AM 19.0 °F 11.1 °F 16.7 °F 91% 29.96 in 7.0 mi East 5.8 mph - N/A   Clear
12:11 PM 20.1 °F 11.3 °F 17.2 °F 89% 29.94 in 7.0 mi East 6.9 mph - N/A   Clear
12:31 PM 21.4 °F 11.9 °F 17.1 °F 83% 29.92 in 7.0 mi East 8.1 mph - N/A   Clear
12:51 PM 23.9 °F 14.2 °F 18.3 °F 79% 29.91 in 7.0 mi East 9.2 mph - N/A   Clear
1:10 PM 25.3 °F 18.5 °F 19.2 °F 78% 29.89 in 7.0 mi East 5.8 mph - N/A   Clear
1:31 PM 26.6 °F 18.2 °F 19.8 °F 75% 29.87 in 7.0 mi East 8.1 mph - N/A   Clear
1:51 PM 25.9 °F 17.4 °F 19.4 °F 76% 29.86 in 7.0 mi East 8.1 mph - N/A   Clear
2:11 PM 24.6 °F 17.7 °F 18.9 °F 79% 29.85 in 7.0 mi East 5.8 mph - N/A   Clear
2:31 PM 24.6 °F 16.7 °F 19.2 °F 80% 29.84 in 7.0 mi ENE 6.9 mph - N/A   Clear
2:51 PM 24.4 °F 17.5 °F 19.4 °F 81% 29.83 in 7.0 mi ENE 5.8 mph - N/A   Clear
3:10 PM 24.6 °F 15.1 °F 19.9 °F 82% 29.83 in 7.0 mi NE 9.2 mph - N/A   Clear
3:31 PM 25.2 °F 16.5 °F 20.5 °F 82% 29.82 in 7.0 mi ENE 8.1 mph - N/A   Clear
3:50 PM 25.3 °F 16.0 °F 21.0 °F 84% 29.82 in 7.0 mi ENE 9.2 mph - N/A   Clear
4:11 PM 25.0 °F 16.3 °F 20.8 °F 84% 29.82 in 7.0 mi East 8.1 mph - N/A   Clear
4:30 PM 25.2 °F 15.7 °F 21.2 °F 85% 29.81 in 7.0 mi ENE 9.2 mph - N/A   Clear
4:51 PM 25.7 °F 16.4 °F 21.7 °F 85% 29.81 in 7.0 mi East 9.2 mph - N/A   Clear
5:11 PM 26.4 °F 17.3 °F 22.5 °F 85% 29.81 in 7.0 mi East 9.2 mph - N/A   Clear
5:31 PM 26.6 °F 18.2 °F 22.8 °F 86% 29.80 in 7.0 mi ENE 8.1 mph - N/A   Clear
5:51 PM 27.5 °F 18.6 °F 23.5 °F 85% 29.79 in 7.0 mi ENE 9.2 mph - N/A   Clear
6:31 PM 28.8 °F 20.2 °F 24.6 °F 84% 29.78 in 7.0 mi ENE 9.2 mph - N/A   Clear
6:50 PM 29.7 °F 21.3 °F 25.3 °F 84% 29.77 in 10.0 mi ENE 9.2 mph - N/A   Clear
7:11 PM 30.0 °F 22.4 °F 25.7 °F 84% 29.77 in 7.0 mi ENE 8.1 mph - N/A   Clear
7:30 PM 30.7 °F 23.3 °F 26.4 °F 84% 29.76 in 7.0 mi ENE 8.1 mph - N/A   Clear
7:51 PM 30.9 °F 23.5 °F 27.0 °F 85% 29.76 in 10.0 mi ENE 8.1 mph - N/A   Clear
8:11 PM 32.0 °F 24.8 °F 27.9 °F 85% 29.75 in 10.0 mi ENE 8.1 mph - N/A   Clear
8:31 PM 32.0 °F 25.6 °F 28.2 °F 86% 29.74 in 7.0 mi ENE 6.9 mph - N/A   Clear
8:51 PM 32.0 °F 26.4 °F 28.4 °F 87% 29.74 in 10.0 mi East 5.8 mph - N/A   Clear
9:11 PM 32.5 °F 26.2 °F 29.1 °F 87% 29.74 in 10.0 mi East 6.9 mph - N/A   Clear
9:30 PM 33.4 °F 28.1 °F 29.3 °F 85% 29.74 in 10.0 mi East 5.8 mph - N/A   Clear
9:51 PM 34.3 °F 26.5 °F 30.0 °F 84% 29.73 in 10.0 mi East 10.4 mph - N/A   Clear
10:11 PM 34.0 °F 28.0 °F 29.8 °F 85% 29.72 in 10.0 mi ENE 6.9 mph - N/A   Clear
10:31 PM 33.8 °F 28.6 °F 29.8 °F 85% 29.71 in 10.0 mi ENE 5.8 mph - N/A   Clear
10:51 PM 33.4 °F 27.3 °F 29.8 °F 87% 29.71 in 10.0 mi East 6.9 mph - N/A   Clear
11:11 PM 33.3 °F 27.1 °F 29.7 °F 87% 29.70 in 10.0 mi ENE 6.9 mph - N/A   Clear
11:31 PM 32.9 °F 27.5 °F 29.3 °F 87% 29.70 in 7.0 mi ENE 5.8 mph - N/A   Clear
11:51 PM 33.1 °F 26.9 °F 29.7 °F 87% 29.70 in 10.0 mi East 6.9 mph - N/A   Scattered Clouds